• In France
  • List of Countries
  • For 7 days
  • Water Temperature
  • Satellite Maps
  • Weather Map
  • Weather Widgets
  • user-avatar
    Login

    Hourly Weather Zadworna

    Today, 18 June, Monday

    Time Temperature Precipitation Wind Pressure Humidity
    00:00 +19°C° 0.5 mm 2 mps 750 mmHg 81%
    01:00 +18°C° 0 mm 2 mps 751 mmHg 86%
    02:00 +17°C° 0.1 mm 2 mps 751 mmHg 88%
    03:00 +16°C° 0.1 mm 2 mps 751 mmHg 90%
    04:00 +16°C° 0.1 mm 2 mps 751 mmHg 91%
    05:00 +17°C° 0.1 mm 3 mps 751 mmHg 87%
    06:00 +18°C° 0.1 mm 3 mps 751 mmHg 82%
    07:00 +19°C° 0.1 mm 4 mps 752 mmHg 78%
    08:00 +20°C° 0.1 mm 4 mps 752 mmHg 72%
    09:00 +22°C° 0.1 mm 4 mps 752 mmHg 65%
    10:00 +23°C° 0.1 mm 4 mps 752 mmHg 59%
    11:00 +25°C° 0.1 mm 4 mps 752 mmHg 56%
    12:00 +26°C° 0.1 mm 4 mps 752 mmHg 53%
    13:00 +26°C° 0.1 mm 4 mps 752 mmHg 51%
    14:00 +26°C° 0 mm 4 mps 752 mmHg 51%
    15:00 +26°C° 0 mm 4 mps 752 mmHg 51%
    16:00 +26°C° 0 mm 4 mps 752 mmHg 52%
    17:00 +25°C° 0 mm 4 mps 752 mmHg 58%
    18:00 +24°C° 0 mm 3 mps 752 mmHg 64%
    19:00 +22°C° 0 mm 3 mps 752 mmHg 70%
    20:00 +20°C° 0 mm 3 mps 752 mmHg 73%
    21:00 +19°C° 0 mm 3 mps 753 mmHg 75%
    22:00 +18°C° 0 mm 2 mps 753 mmHg 77%
    23:00 +17°C° 0 mm 2 mps 753 mmHg 77%

    Tomorrow, 19 June, Tuesday

    Time Temperature Precipitation Wind Pressure Humidity
    00:00 +17°C° 0 mm 2 mps 753 mmHg 78%
    01:00 +16°C° 0 mm 2 mps 753 mmHg 78%
    02:00 +16°C° 0 mm 2 mps 753 mmHg 78%
    03:00 +15°C° 0 mm 2 mps 754 mmHg 79%
    04:00 +15°C° 0 mm 2 mps 754 mmHg 80%
    05:00 +17°C° 0 mm 2 mps 754 mmHg 75%
    06:00 +18°C° 0 mm 2 mps 754 mmHg 71%
    07:00 +20°C° 0 mm 2 mps 754 mmHg 67%
    08:00 +21°C° 0 mm 3 mps 754 mmHg 65%
    09:00 +22°C° 0 mm 3 mps 754 mmHg 62%
    10:00 +25°C° 0 mm 3 mps 754 mmHg 60%
    11:00 +25°C° 0.1 mm 4 mps 754 mmHg 59%
    12:00 +25°C° 0.1 mm 4 mps 754 mmHg 59%
    13:00 +26°C° 0.1 mm 4 mps 754 mmHg 59%
    14:00 +26°C° 0.1 mm 4 mps 754 mmHg 59%
    15:00 +26°C° 0.1 mm 4 mps 754 mmHg 60%
    16:00 +26°C° 0.1 mm 4 mps 753 mmHg 60%
    17:00 +25°C° 0 mm 3 mps 754 mmHg 64%
    18:00 +24°C° 0 mm 3 mps 754 mmHg 68%
    19:00 +24°C° 0 mm 2 mps 754 mmHg 71%
    20:00 +21°C° 0 mm 2 mps 754 mmHg 74%
    21:00 +21°C° 0 mm 1 mps 754 mmHg 76%
    22:00 +20°C° 0 mm 1 mps 755 mmHg 79%
    23:00 +19°C° 0 mm 1 mps 755 mmHg 81%

    Day after tomorrow, 20 June, Wednesday

    Time Temperature Precipitation Wind Pressure Humidity
    00:00 +19°C° 0 mm 1 mps 755 mmHg 84%
    01:00 +17°C° 0 mm 2 mps 755 mmHg 86%
    02:00 +17°C° 0 mm 2 mps 755 mmHg 88%
    03:00 +16°C° 0 mm 2 mps 755 mmHg 90%
    04:00 +16°C° 0 mm 2 mps 756 mmHg 93%
    05:00 +17°C° 0 mm 2 mps 756 mmHg 86%
    06:00 +19°C° 0 mm 2 mps 756 mmHg 80%
    07:00 +20°C° 0 mm 2 mps 756 mmHg 74%
    08:00 +21°C° 0 mm 2 mps 756 mmHg 68%
    09:00 +23°C° 0 mm 2 mps 756 mmHg 63%
    10:00 +24°C° 0 mm 2 mps 756 mmHg 57%
    11:00 +25°C° 0 mm 2 mps 756 mmHg 55%
    12:00 +26°C° 0 mm 2 mps 755 mmHg 52%
    13:00 +26°C° 0 mm 2 mps 755 mmHg 49%
    14:00 +27°C° 0 mm 2 mps 755 mmHg 50%
    15:00 +27°C° 0 mm 2 mps 754 mmHg 50%
    16:00 +27°C° 0 mm 2 mps 754 mmHg 51%
    17:00 +26°C° 0 mm 1 mps 754 mmHg 56%
    18:00 +25°C° 0 mm 1 mps 754 mmHg 61%
    19:00 +25°C° 0 mm 1 mps 754 mmHg 66%
    20:00 +23°C° 0 mm 1 mps 754 mmHg 69%
    21:00 +22°C° 0 mm 1 mps 754 mmHg 72%
    22:00 +21°C° 0 mm 1 mps 754 mmHg 74%
    23:00 +20°C° 0 mm 1 mps 753 mmHg 76%

    21 June, Thursday

    Time Temperature Precipitation Wind Pressure Humidity
    00:00 +20°C° 0 mm 1 mps 753 mmHg 77%
    01:00 +20°C° 0 mm 1 mps 753 mmHg 78%
    02:00 +19°C° 0 mm 2 mps 752 mmHg 79%
    03:00 +18°C° 0 mm 2 mps 752 mmHg 81%
    04:00 +18°C° 0 mm 2 mps 751 mmHg 82%
    05:00 +20°C° 0 mm 2 mps 751 mmHg 79%
    06:00 +21°C° 0 mm 3 mps 750 mmHg 75%
    07:00 +24°C° 0 mm 3 mps 750 mmHg 72%
    08:00 +25°C° 0.1 mm 3 mps 749 mmHg 67%
    09:00 +27°C° 0.1 mm 4 mps 749 mmHg 63%
    10:00 +28°C° 0.1 mm 4 mps 748 mmHg 59%
    11:00 +29°C° 0.4 mm 4 mps 747 mmHg 58%
    12:00 +29°C° 0.4 mm 5 mps 746 mmHg 56%
    13:00 +30°C° 0.4 mm 5 mps 745 mmHg 55%
    14:00 +29°C° 0.8 mm 5 mps 745 mmHg 58%
    15:00 +29°C° 0.8 mm 5 mps 744 mmHg 62%
    16:00 +28°C° 0.8 mm 5 mps 744 mmHg 65%
    17:00 +26°C° 0.9 mm 6 mps 744 mmHg 72%
    18:00 +24°C° 0.9 mm 6 mps 744 mmHg 78%
    19:00 +22°C° 0.9 mm 6 mps 744 mmHg 85%
    20:00 +20°C° 0 mm 6 mps 745 mmHg 85%
    21:00 +17°C° 0 mm 6 mps 746 mmHg 84%
    22:00 +15°C° 0 mm 6 mps 747 mmHg 84%
    23:00 +14°C° 0 mm 6 mps 747 mmHg 82%

    22 June, Friday

    Time Temperature Precipitation Wind Pressure Humidity
    00:00 +13°C° 0 mm 5 mps 748 mmHg 79%
    01:00 +12°C° 0 mm 5 mps 748 mmHg 77%
    02:00 +10°C° 0 mm 5 mps 748 mmHg 76%
    03:00 +10°C° 0 mm 5 mps 749 mmHg 75%
    04:00 +9°C° 0 mm 5 mps 749 mmHg 73%
    05:00 +10°C° 0 mm 6 mps 749 mmHg 72%
    06:00 +10°C° 0 mm 6 mps 749 mmHg 71%
    07:00 +11°C° 0 mm 6 mps 749 mmHg 69%
    08:00 +12°C° 0 mm 7 mps 749 mmHg 64%
    09:00 +14°C° 0 mm 7 mps 750 mmHg 59%
    10:00 +15°C° 0 mm 7 mps 750 mmHg 53%
    11:00 +15°C° 0 mm 7 mps 750 mmHg 52%
    12:00 +15°C° 0 mm 7 mps 750 mmHg 51%
    13:00 +16°C° 0 mm 7 mps 749 mmHg 50%
    14:00 +16°C° 0 mm 7 mps 749 mmHg 50%
    15:00 +16°C° 0 mm 7 mps 749 mmHg 50%
    16:00 +16°C° 0 mm 7 mps 749 mmHg 50%
    17:00 +15°C° 0.1 mm 6 mps 749 mmHg 56%
    18:00 +15°C° 0.1 mm 5 mps 749 mmHg 62%
    19:00 +14°C° 0.1 mm 4 mps 749 mmHg 68%
    20:00 +13°C° 0 mm 4 mps 749 mmHg 73%
    21:00 +12°C° 0 mm 3 mps 749 mmHg 78%
    22:00 +10°C° 0 mm 3 mps 749 mmHg 83%
    23:00 +10°C° 0 mm 3 mps 749 mmHg 86%

    23 June, Saturday

    Time Temperature Precipitation Wind Pressure Humidity
    00:00 +10°C° 0 mm 3 mps 749 mmHg 90%
    01:00 +8°C° 0 mm 4 mps 749 mmHg 93%
    02:00 +9°C° 0 mm 3 mps 749 mmHg 94%
    03:00 +9°C° 0 mm 3 mps 749 mmHg 95%
    04:00 +9°C° 0 mm 3 mps 749 mmHg 96%
    05:00 +10°C° 0 mm 4 mps 750 mmHg 90%
    06:00 +11°C° 0 mm 4 mps 750 mmHg 85%
    07:00 +13°C° 0 mm 4 mps 750 mmHg 80%
    08:00 +14°C° 0 mm 5 mps 750 mmHg 71%
    09:00 +16°C° 0 mm 5 mps 750 mmHg 63%
    10:00 +17°C° 0 mm 5 mps 750 mmHg 55%
    11:00 +17°C° 0.1 mm 6 mps 750 mmHg 54%
    12:00 +19°C° 0.1 mm 6 mps 750 mmHg 54%
    13:00 +18°C° 0.1 mm 7 mps 750 mmHg 53%
    14:00 +19°C° 0.2 mm 6 mps 750 mmHg 55%
    15:00 +19°C° 0.2 mm 6 mps 751 mmHg 58%
    16:00 +17°C° 0.2 mm 5 mps 751 mmHg 60%
    17:00 +17°C° 0.1 mm 5 mps 751 mmHg 64%
    18:00 +17°C° 0.1 mm 4 mps 751 mmHg 69%
    19:00 +16°C° 0.1 mm 3 mps 751 mmHg 73%
    20:00 +14°C° 0 mm 3 mps 751 mmHg 77%
    21:00 +13°C° 0 mm 3 mps 752 mmHg 81%
    22:00 +12°C° 0 mm 3 mps 752 mmHg 85%
    23:00 +11°C° 0 mm 3 mps 752 mmHg 87%
    Show more